Regional Weather Roundup
Issued by NWS Green Bay, WI

Home | Current Version | Previous Version | Text Only | Print | Product List | Glossary On
Versions: 1 2 3 4 5 6 7 8 9 10 11 12 13 14 15 16 17 18 19 20 21 22 23 24 25 26 27 28 29 30 31 32 33 34 35 36 37 38 39 40 41 42 43 44 45 46 47 48 49 50
000
ASUS43 KGRB 061610
RWRGRB

NORTH-CENTRAL AND NORTHEAST WISCONSIN REGIONAL WEATHER ROUNDUP
NATIONAL WEATHER SERVICE GREEN BAY WI
1000 AM CST FRI MAR 06 2015

WIZ005-009-010>012-018-019-061700-
NORTH CENTRAL WISCONSIN

CITY           SKY/WX    TMP DP  RH WIND       PRES   REMARKS
IRONWOOD       CLOUDY    18   5  57 SW13      29.94F WCI   4
MANITOWISH WTR CLOUDY    14   2  59 SW10G17   29.98S WCI   1
ARBOR VITAE    PTSUNNY   17   4  58 SW8G16    29.98F WCI   6
EAGLE RIVER    MOSUNNY   13   0  55 SW12G18   29.98F WCI   0
LAND O LAKES   MOSUNNY   17   1  51 SW12G17   29.97F WCI   4
RHINELANDER    CLOUDY    13   1  59 SW15      30.01F WCI  -3
PHILLIPS       CLOUDY    13   2  61 SW9       30.01F WCI   1
ANTIGO         CLOUDY    15   4  61 SW20      30.05F WCI  -3
TOMAHAWK       CLOUDY    16   3  56 S3        30.03F
MERRILL        CLOUDY    13   1  58 SW8       30.07F WCI   2
$$

WIZ013-073-061700-
NORTHEAST WISCONSIN

CITY           SKY/WX    TMP DP  RH WIND       PRES   REMARKS
IRON MOUNTAIN  PTSUNNY   21   3  45 SW14      30.01F WCI   8
MARINETTE      MOSUNNY   14   1  57 SW12G20   30.15F WCI   0
OCONTO         MOSUNNY   15   1  54 SW10      30.17F WCI   2
$$

WIZ017-030-035>037-045-061700-
CENTRAL WISCONSIN

CITY           SKY/WX    TMP DP  RH WIND       PRES   REMARKS
MEDFORD        CLOUDY    11   2  66 SW13      30.05F WCI  -3
WAUSAU         CLOUDY    14   2  58 S12       30.09F WCI   0
MOSINEE        PTSUNNY   12   3  67 S14G21    30.11F WCI  -3
MARSHFIELD     CLOUDY    17   4  56 SW14      30.09F WCI   3
WISC RAPIDS    PTSUNNY   17   2  51 S16       30.15F WCI   2
STEVENS POINT  PTSUNNY   16   2  55 S13G21    30.12F WCI   2
WAUPACA        SUNNY     20   4  49 S6        30.18F
SHAWANO        SUNNY     16   2  52 SW14      30.17F WCI   2
CLINTONVILLE   MOSUNNY   16   3  57 SW10      30.17F WCI   3
$$

WIZ038-039-048-051-061700-
FOX VALLEY

CITY           SKY/WX    TMP DP  RH WIND       PRES   REMARKS
NWS GREEN BAY  MOSUNNY   12   3  67 S14       30.20F WCI  -3
APPLETON       PTSUNNY   14   3  62 SW17G23   30.20F WCI  -3
OSHKOSH        MOSUNNY   16   4  59 SW20G29   30.20F WCI  -1
FOND DU LAC    MOSUNNY   17   4  56 SW21G31   30.22F WCI   0
$$

WIZ022-050-052-061700-
EAST CENTRAL WISCONSIN

CITY           SKY/WX    TMP DP  RH WIND       PRES   REMARKS
STURGEON BAY   CLOUDY    16   1  53 SW18G24   30.18F WCI  -1
MANITOWOC      CLOUDY    21   6  52 SW14      30.23F WCI   8
SHEBOYGAN      MOSUNNY   18   6  59 SW21      30.23F WCI   1
$$

LMZ563-521-522-541>543-061700-
LAKESHORE

STATION/POSITION TIME  TEMP    WIND        PRES    VSBY  WAVE
                       AIR SEA DIR/SP/G                  HT/PER
                 (UTC) (F)     (DEG/KT/KT) (MB)    (MI)  (FT/S)
SHEBOYGAN LKSHOR 1600   17     210/ 20/ 23 1025.7F
KEWAUNEE LKSHORE 1600          200/ 14/ 16   N/A
TWO RIVERS CG    1600   16                   N/A       6   0
NORTHPORT PIER   1600   18     220/ 10/ 22 1021.0F
CHAMBERS ISLAND  1600    9     180/ 13/ 20 1021.7F
MENOMINEE LKSHOR 1600   11     190/  7     1022.1F
$$



USA.gov is the U.S. government's official web portal to all federal, state and local government web resources and services.